This is the latest recevied weather packets stored in our database for station/object KF7BKV-1. If no packets are shown the sender has not sent any weather packets the latest 1 day(s).
| Time | Temp. | Humidity | Pressure | Rain* | Wind** | Luminosity | Snow |
|---|---|---|---|---|---|---|---|
| 1778042944 | 16.67° C | 34% | 1012.1 hPa | 0 mm | 3.58 m/s, 325° | - | - |
| 1778042823 | 16.67° C | 34% | 1012.1 hPa | 0 mm | 3.58 m/s, 325° | - | - |
| 1778042704 | 16.67° C | 34% | 1012 hPa | 0 mm | 2.68 m/s, 293° | - | - |
| 1778042583 | 16.67° C | 34% | 1012 hPa | 0 mm | 2.68 m/s, 293° | - | - |
| 1778042523 | 16.67° C | 34% | 1012 hPa | 0 mm | 2.68 m/s, 293° | - | - |
| 1778042463 | 16.67° C | 34% | 1012 hPa | 0 mm | 2.68 m/s, 293° | - | - |
| 1778042283 | 17.22° C | 33% | 1012 hPa | 0 mm | 2.24 m/s, 311° | - | - |
| 1778042223 | 17.22° C | 33% | 1012 hPa | 0 mm | 2.24 m/s, 311° | - | - |
| 1778041923 | 17.22° C | 33% | 1011.7 hPa | 0 mm | 3.58 m/s, 271° | - | - |
| 1778041863 | 17.22° C | 33% | 1011.7 hPa | 0 mm | 3.58 m/s, 271° | - | - |
| 1778041503 | 17.78° C | 32% | 1011.8 hPa | 0 mm | 3.58 m/s, 344° | - | - |
| 1778041263 | 17.78° C | 32% | 1011.8 hPa | 0 mm | 3.58 m/s, 344° | - | - |
| 1778041083 | 17.78° C | 32% | 1011.6 hPa | 0 mm | 2.68 m/s, 310° | - | - |
| 1778040783 | 17.78° C | 32% | 1011.8 hPa | 0 mm | 3.13 m/s, 326° | - | - |
| 1778040723 | 17.78° C | 32% | 1011.8 hPa | 0 mm | 3.13 m/s, 326° | - | - |
| 1778040543 | 17.78° C | 32% | 1011.5 hPa | 0 mm | 4.02 m/s, 319° | - | - |
| 1778040303 | 17.78° C | 32% | 1011.4 hPa | 0 mm | 2.24 m/s, 304° | - | - |
| 1778040243 | 17.78° C | 32% | 1011.4 hPa | 0 mm | 2.24 m/s, 304° | - | - |
| 1778040004 | 17.78° C | 32% | 1011.1 hPa | 0 mm | 2.68 m/s, 346° | - | - |
| 1778039883 | 17.78° C | 32% | 1011.1 hPa | 0 mm | 2.68 m/s, 346° | - | - |
| 1778039823 | 17.78° C | 32% | 1011.1 hPa | 0 mm | 2.68 m/s, 346° | - | - |
| 1778039763 | 17.78° C | 32% | 1011.1 hPa | 0 mm | 2.68 m/s, 346° | - | - |
| 1778039583 | 17.78° C | 32% | 1011.2 hPa | 0 mm | 4.02 m/s, 327° | - | - |
| 1778039463 | 17.78° C | 32% | 1011.2 hPa | 0 mm | 4.02 m/s, 327° | - | - |
| 1778039343 | 18.33° C | 32% | 1011.1 hPa | 0 mm | 2.24 m/s, 330° | - | - |
* Rain latest hour (hover to see other rain measurements)
** Current wind speed in m/s (hover to see current wind gust speed)